FW0960 Weather Reports


time (UTC)temp
C
wind
direction
speed
KPH
gust
KPH
rain 1hr
cm
rain 24hr
cm
rain mn
cm
humidity
%
barometer
mb
20210518202633 22 322 1.6 4.8 0.00 0.00 0.00 49 1027.0
20210518202133 22 306 1.6 4.8 0.00 0.00 0.00 49 1026.9
20210518201631 22 309 1.6 4.8 0.00 0.00 0.00 48 1027.2
20210518201134 22 342 1.6 4.8 0.00 0.00 0.00 48 1027.2
20210518195632 22 341 1.6 4.8 0.00 0.00 0.00 46 1027.2
20210518195130 22 340 1.6 4.8 0.00 0.00 0.00 47 1027.3
20210518194629 22 341 3.2 6.4 0.00 0.00 0.00 47 1027.4
20210518194128 23 311 1.6 6.4 0.00 0.00 0.00 48 1027.4
20210518193629 23 333 1.6 4.8 0.00 0.00 0.00 49 1027.5
20210518193128 22 196 1.6 4.8 0.00 0.00 0.00 53 1027.5
20210518192124 22 342 3.2 6.4 0.00 0.00 0.00 54 1027.6
20210518191625 22 349 1.6 6.4 0.00 0.00 0.00 50 1027.7
20210518191127 22 349 1.6 6.4 0.00 0.00 0.00 53 1027.8
20210518190624 22 340 1.6 4.8 0.00 0.00 0.00 56 1027.7
20210518190127 22 343 1.6 4.8 0.00 0.00 0.00 59 1027.8
20210518185623 22 342 1.6 4.8 0.00 0.00 0.00 58 1028.0
20210518185125 22 264 1.6 4.8 0.00 0.00 0.00 59 1028.1
20210518184624 22 232 1.6 4.8 0.00 0.00 0.00 58 1028.1
20210518184124 22 329 1.6 4.8 0.00 0.00 0.00 59 1028.2
20210518183625 22 312 1.6 4.8 0.00 0.00 0.00 60 1028.3
20210518183125 21 284 1.6 6.4 0.00 0.00 0.00 62 1028.2
20210518182623 21 355 1.6 6.4 0.00 0.00 0.00 62 1028.3
20210518182125 21 24 1.6 6.4 0.00 0.00 0.00 61 1028.2
20210518181623 22 5 1.6 6.4 0.00 0.00 0.00 62 1028.3
20210518181124 22 333 1.6 6.4 0.00 0.00 0.00 65 1028.4
20210518180623 22 342 1.6 4.8 0.00 0.00 0.00 64 1028.4
20210518175619 22 347 1.6 4.8 0.00 0.00 0.00 67 1028.5
20210518175121 22 355 1.6 4.8 0.00 0.00 0.00 63 1028.5
20210518174616 21 355 1.6 4.8 0.00 0.00 0.00 62 1028.5
20210518174117 22 355 1.6 4.8 0.00 0.00 0.00 61 1028.5
20210518173617 22 355 1.6 4.8 0.00 0.00 0.00 63 1028.5
20210518173115 22 355 1.6 6.4 0.00 0.00 0.00 61 1028.5
20210518172625 22 355 1.6 6.4 0.00 0.00 0.00 61 1028.7
20210518172114 22 14 1.6 4.8 0.00 0.00 0.00 65 1028.8
20210518171615 22 329 1.6 6.4 0.00 0.00 0.00 60 1028.8
20210518171116 22 327 1.6 6.4 0.00 0.00 0.00 59 1028.8
20210518170609 22 327 1.6 4.8 0.00 0.00 0.00 62 1028.8
20210518170104 22 327 1.6 4.8 0.00 0.00 0.00 55 1028.8
20210518165632 22 254 1.6 4.8 0.00 0.00 0.00 56 1028.8
20210518164603 22 271 1.6 4.8 0.00 0.00 0.00 58 1029.0
20210518164104 22 288 1.6 4.8 0.00 0.00 0.00 58 1029.0
20210518163601 22 327 0.0 3.2 0.00 0.00 0.00 59 1029.0
20210518163100 22 327 0.0 3.2 0.00 0.00 0.00 60 1029.0
20210518162603 22 327 0.0 3.2 0.00 0.00 0.00 61 1029.2
20210518162102 22 327 0.0 3.2 0.00 0.00 0.00 63 1029.3
20210518161128 21 332 1.6 6.4 0.00 0.00 0.00 60 1029.4
20210518160605 21 332 1.6 6.4 0.00 0.00 0.00 59 1029.4
20210518160102 21 301 0.0 3.2 0.00 0.00 0.00 61 1029.5
20210518155602 21 268 0.0 0.0 0.00 0.00 0.00 61 1029.5
20210518155104 21 268 0.0 1.6 0.00 0.00 0.00 61 1029.4
20210518154608 21 267 0.0 1.6 0.00 0.00 0.00 59 1029.5
20210518154119 21 5 0.0 1.6 0.00 0.00 0.00 60 1029.5
20210518153600 21 5 0.0 4.8 0.00 0.00 0.00 62 1029.6
20210518153104 21 5 1.6 4.8 0.00 0.00 0.00 61 1029.6
20210518152602 21 5 1.6 4.8 0.00 0.00 0.00 63 1029.7
20210518152103 21 5 0.0 4.8 0.00 0.00 0.00 62 1029.6
20210518151603 21 155 0.0 3.2 0.00 0.00 0.00 64 1029.6
20210518150606 20 155 0.0 4.8 0.00 0.00 0.00 58 1029.8
20210518150101 20 155 0.0 6.4 0.00 0.00 0.00 57 1029.7
20210518145603 20 167 0.0 6.4 0.00 0.00 0.00 56 1029.6
20210518145101 20 167 1.6 4.8 0.00 0.00 0.00 56 1029.6
20210518144601 20 167 1.6 4.8 0.00 0.00 0.00 56 1029.5
20210518144104 20 194 1.6 3.2 0.00 0.00 0.00 56 1029.6
20210518143602 20 198 1.6 4.8 0.00 0.00 0.00 59 1029.6
20210518143101 20 198 1.6 6.4 0.00 0.00 0.00 57 1029.5
20210518142557 20 209 1.6 6.4 0.00 0.00 0.00 60 1029.6
20210518142056 20 101 1.6 6.4 0.00 0.00 0.00 63 1029.6
20210518141556 19 198 1.6 6.4 0.00 0.00 0.00 60 1029.6
20210518141057 19 198 1.6 6.4 0.00 0.00 0.00 61 1029.6
20210518140556 19 150 1.6 4.8 0.00 0.00 0.00 59 1029.6
20210518140057 19 224 1.6 6.4 0.00 0.00 0.00 60 1029.7
20210518135549 19 224 1.6 6.4 0.00 0.00 0.00 58 1029.8
20210518135046 18 150 1.6 6.4 0.00 0.00 0.00 62 1029.8
20210518134548 18 227 3.2 9.7 0.00 0.00 0.00 61 1029.8
20210518134044 18 182 1.6 9.7 0.00 0.00 0.00 64 1029.8
20210518133544 18 185 1.6 6.4 0.00 0.00 0.00 68 1029.8
20210518133041 18 232 1.6 8.0 0.00 0.00 0.00 66 1029.8
20210518132545 18 232 1.6 8.0 0.00 0.00 0.00 67 1029.7
20210518132040 18 147 1.6 6.4 0.00 0.00 0.00 66 1029.6
20210518131541 18 164 0.0 3.2 0.00 0.00 0.00 70 1029.5
20210518131039 17 169 1.6 6.4 0.00 0.00 0.00 71 1029.5
20210518130535 17 169 1.6 6.4 0.00 0.00 0.00 71 1029.4
20210518130035 17 167 1.6 6.4 0.00 0.00 0.00 74 1029.3
20210518125534 17 157 0.0 4.8 0.00 0.00 0.00 74 1029.4
20210518125036 17 80 0.0 3.2 0.00 0.00 0.00 74 1029.2
20210518124532 16 200 0.0 3.2 0.00 0.00 0.00 77 1029.1
20210518124032 16 200 0.0 3.2 0.00 0.00 0.00 77 1029.2
20210518123531 16 231 0.0 4.8 0.00 0.00 0.00 80 1029.1
20210518123028 15 231 0.0 4.8 0.00 0.00 0.00 82 1029.0
20210518122530 15 251 0.0 4.8 0.00 0.00 0.00 84 1029.0
20210518122030 15 271 0.0 3.2 0.00 0.00 0.00 86 1028.9
20210518121532 14 271 0.0 3.2 0.00 0.00 0.00 90 1028.9
20210518121032 13 271 0.0 0.0 0.00 0.00 0.00 91 1028.9
20210518120531 13 271 0.0 0.0 0.00 0.00 0.00 92 1028.8
20210518120030 13 271 0.0 0.0 0.00 0.00 0.00 93 1028.7
20210518115529 13 271 0.0 0.0 0.00 0.00 0.00 95 1028.7
20210518115029 13 271 0.0 0.0 0.00 0.00 0.00 96 1028.7
20210518114529 12 271 0.0 0.0 0.00 0.00 0.00 96 1028.7
20210518114029 12 271 0.0 0.0 0.00 0.00 0.00 96 1028.6
20210518113534 12 271 0.0 0.0 0.00 0.00 0.00 97 1028.5
20210518113029 12 271 0.0 1.6 0.00 0.00 0.00 97 1028.5
20210518112532 12 271 0.0 1.6 0.00 0.00 0.00 97 1028.5
20210518112030 11 271 0.0 0.0 0.00 0.00 0.00 97 1028.3
20210518111531 11 271 0.0 0.0 0.00 0.00 0.00 96 1028.3
20210518111029 11 271 0.0 0.0 0.00 0.00 0.00 96 1028.2
20210518110529 11 271 0.0 0.0 0.00 0.00 0.00 96 1028.2
20210518110030 11 271 0.0 0.0 0.00 0.00 0.00 96 1028.1
20210518105530 11 271 0.0 0.0 0.00 0.00 0.00 96 1028.1
20210518104540 11 271 0.0 0.0 0.00 0.00 0.00 96 1027.9
20210518104029 11 271 0.0 0.0 0.00 0.00 0.00 96 1027.8
20210518103532 11 271 0.0 0.0 0.00 0.00 0.00 96 1027.9
20210518102532 11 271 0.0 0.0 0.00 0.00 0.00 95 1027.9
20210518102029 10 271 0.0 0.0 0.00 0.00 0.00 95 1027.8
20210518101025 11 271 0.0 0.0 0.00 0.00 0.00 95 1027.8
20210518100526 11 271 0.0 0.0 0.00 0.00 0.00 95 1027.7
20210518100023 11 271 0.0 0.0 0.00 0.00 0.00 95 1027.8
20210518095020 11 271 0.0 0.0 0.00 0.00 0.00 95 1027.8
20210518094009 11 271 0.0 0.0 0.00 0.00 0.00 95 1027.6
20210518093508 11 271 0.0 0.0 0.00 0.00 0.00 95 1027.7
20210518093011 11 271 0.0 0.0 0.00 0.00 0.00 95 1027.6
20210518092506 11 271 0.0 0.0 0.00 0.00 0.00 95 1027.6
20210518092008 11 271 0.0 0.0 0.00 0.00 0.00 95 1027.6
20210518091504 11 271 0.0 0.0 0.00 0.00 0.00 95 1027.4
20210518091001 11 271 0.0 0.0 0.00 0.00 0.00 94 1027.5
20210518090504 11 271 0.0 0.0 0.00 0.00 0.00 94 1027.4
20210518085005 11 271 0.0 0.0 0.00 0.00 0.00 95 1027.3
20210518084503 11 271 0.0 0.0 0.00 0.00 0.00 95 1027.3
20210518084006 11 271 0.0 0.0 0.00 0.00 0.00 95 1027.2
20210518083501 11 271 0.0 0.0 0.00 0.00 0.00 95 1027.2
20210518083002 11 271 0.0 0.0 0.00 0.00 0.00 94 1027.2
20210518082504 11 271 0.0 0.0 0.00 0.00 0.00 94 1027.2
20210518082002 12 271 0.0 0.0 0.00 0.00 0.00 94 1027.2
20210518081504 12 271 0.0 0.0 0.00 0.00 0.00 95 1027.3
20210518081000 12 271 0.0 0.0 0.00 0.00 0.00 94 1027.1
20210518075958 12 271 0.0 0.0 0.00 0.00 0.00 94 1027.1
20210518075457 12 271 0.0 0.0 0.00 0.00 0.00 94 1027.1
20210518074958 12 271 0.0 0.0 0.00 0.00 0.00 94 1027.1
20210518074453 12 271 0.0 0.0 0.00 0.00 0.00 94 1027.1
20210518073951 12 271 0.0 0.0 0.00 0.00 0.00 94 1027.1
20210518073448 12 271 0.0 0.0 0.00 0.00 0.00 94 1027.1
20210518072951 12 271 0.0 0.0 0.00 0.00 0.00 94 1027.1
20210518072450 12 271 0.0 0.0 0.00 0.00 0.00 94 1027.0
20210518071447 12 271 0.0 0.0 0.00 0.00 0.00 94 1027.1
20210518070943 12 271 0.0 0.0 0.00 0.00 0.00 94 1027.1
20210518070442 12 271 0.0 0.0 0.00 0.00 0.00 93 1026.9
20210518065938 12 271 0.0 0.0 0.00 0.00 0.00 93 1026.9
20210518065438 12 271 0.0 0.0 0.00 0.00 0.00 94 1027.0
20210518064939 12 271 0.0 0.0 0.00 0.00 0.00 94 1027.0
20210518064435 12 271 0.0 0.0 0.00 0.00 0.00 94 1026.9
20210518063935 12 271 0.0 0.0 0.00 0.00 0.00 94 1026.9
20210518063438 12 271 0.0 0.0 0.00 0.00 0.00 94 1027.0
20210518062935 12 271 0.0 0.0 0.00 0.00 0.00 93 1026.9
20210518062434 12 271 0.0 0.0 0.00 0.00 0.00 93 1026.9
20210518061939 12 271 0.0 0.0 0.00 0.00 0.00 93 1026.9
20210518061434 12 271 0.0 0.0 0.00 0.00 0.00 93 1026.8
20210518060935 12 271 0.0 0.0 0.00 0.00 0.00 92 1026.8
20210518060432 12 271 0.0 0.0 0.00 0.00 0.00 92 1026.9
20210518055930 12 271 0.0 0.0 0.00 0.00 0.00 92 1026.9
20210518055434 12 271 0.0 0.0 0.00 0.00 0.00 92 1027.0
20210518054432 12 271 0.0 0.0 0.00 0.00 0.00 92 1026.9
20210518053932 12 271 0.0 0.0 0.00 0.00 0.00 92 1027.0
20210518052929 12 271 0.0 0.0 0.00 0.00 0.00 91 1027.0
20210518052431 12 271 0.0 0.0 0.00 0.00 0.00 91 1027.0
20210518051930 12 271 0.0 0.0 0.00 0.00 0.00 90 1026.9
20210518050924 12 271 0.0 0.0 0.00 0.00 0.00 90 1027.0
20210518050423 12 271 0.0 0.0 0.00 0.00 0.00 90 1026.9
20210518045923 12 271 0.0 0.0 0.00 0.00 0.00 90 1027.0
20210518045425 12 271 0.0 0.0 0.00 0.00 0.00 90 1027.0
20210518044920 13 271 0.0 0.0 0.00 0.00 0.00 90 1027.0
20210518044422 13 271 0.0 0.0 0.00 0.00 0.00 90 1027.1
20210518043921 13 271 0.0 0.0 0.00 0.00 0.00 89 1027.1
20210518043420 13 271 0.0 0.0 0.00 0.00 0.00 89 1027.2
20210518042921 13 271 0.0 0.0 0.00 0.00 0.00 88 1027.3
20210518042420 13 271 0.0 0.0 0.00 0.00 0.00 88 1027.1
20210518041938 13 271 0.0 0.0 0.00 0.00 0.00 88 1027.1
20210518041421 13 271 0.0 0.0 0.00 0.00 0.00 88 1027.3
20210518040920 13 271 0.0 0.0 0.00 0.00 0.00 87 1027.1
20210518040415 13 271 0.0 0.0 0.00 0.00 0.00 87 1027.1
20210518035911 13 271 0.0 0.0 0.00 0.00 0.00 87 1027.1
20210518035416 13 271 0.0 0.0 0.00 0.00 0.00 86 1027.0
20210518034906 13 271 0.0 0.0 0.00 0.00 0.00 86 1027.0
20210518034404 13 271 0.0 0.0 0.00 0.00 0.00 85 1027.0
20210518033903 13 271 0.0 0.0 0.00 0.00 0.00 85 1027.1
20210518033404 13 271 0.0 0.0 0.00 0.00 0.00 84 1027.0
20210518032902 13 271 0.0 0.0 0.00 0.00 0.00 84 1027.0
20210518032404 13 271 0.0 0.0 0.00 0.00 0.00 84 1027.0
20210518031903 13 271 0.0 0.0 0.00 0.00 0.00 84 1027.0
20210518030902 13 271 0.0 0.0 0.00 0.00 0.00 83 1027.0
20210518025859 13 271 0.0 0.0 0.00 0.00 0.00 82 1027.1
20210518024853 13 271 0.0 0.0 0.00 0.00 0.00 81 1027.1
20210518024351 13 271 0.0 0.0 0.00 0.00 0.00 81 1027.1
20210518023854 14 271 0.0 0.0 0.00 0.00 0.00 81 1027.1
20210518023347 14 271 0.0 0.0 0.00 0.00 0.00 80 1027.1
20210518022850 14 271 0.0 0.0 0.00 0.00 0.00 81 1027.1
20210518021845 14 271 0.0 0.0 0.00 0.00 0.00 79 1027.0
20210518021342 14 271 0.0 0.0 0.00 0.00 0.00 78 1027.0
20210518020341 14 271 0.0 0.0 0.00 0.00 0.00 75 1027.1
20210518015844 14 271 0.0 0.0 0.00 0.00 0.00 74 1027.0
20210518015336 15 271 0.0 0.0 0.00 0.00 0.00 76 1026.9
20210518014838 15 271 0.0 0.0 0.00 0.00 0.00 77 1026.9
20210518014338 15 271 0.0 0.0 0.00 0.00 0.00 78 1026.8
20210518013836 15 271 0.0 0.0 0.00 0.00 0.00 74 1026.8
20210518013335 15 271 0.0 0.0 0.00 0.00 0.00 74 1026.8
20210518012331 15 271 0.0 0.0 0.00 0.00 0.00 69 1026.7
20210518011831 15 271 0.0 0.0 0.00 0.00 0.00 69 1026.6
20210518010832 15 271 0.0 0.0 0.00 0.00 0.00 68 1026.6
20210518005828 16 271 0.0 0.0 0.00 0.00 0.00 67 1026.5
20210518005328 16 271 0.0 0.0 0.00 0.00 0.00 65 1026.3
20210518004831 16 271 0.0 0.0 0.00 0.00 0.00 64 1026.4
20210518003825 16 271 0.0 0.0 0.00 0.00 0.00 63 1026.4
20210518003326 16 271 0.0 0.0 0.00 0.00 0.00 62 1026.3
20210518002825 16 271 0.0 0.0 0.00 0.00 0.00 61 1026.3
20210518002319 16 271 0.0 0.0 0.00 0.00 0.00 61 1026.3
20210518001820 17 271 0.0 0.0 0.00 0.00 0.00 61 1026.4
20210518001323 17 271 0.0 0.0 0.00 0.00 0.00 61 1026.4
20210518000820 17 271 0.0 0.0 0.00 0.00 0.00 60 1026.4
20210517235819 17 271 0.0 1.6 0.00 0.00 0.00 60 1026.5
20210517235317 17 271 0.0 1.6 0.00 0.00 0.00 61 1026.5
20210517234810 17 271 0.0 1.6 0.00 0.00 0.00 60 1026.3
20210517234310 17 271 0.0 1.6 0.00 0.00 0.00 59 1026.3
20210517233805 17 271 0.0 1.6 0.00 0.00 0.00 58 1026.1
20210517233308 17 271 0.0 3.2 0.00 0.00 0.00 59 1026.1
20210517232803 17 271 0.0 3.2 0.00 0.00 0.00 59 1026.1
20210517232306 18 271 0.0 1.6 0.00 0.00 0.00 59 1026.0
20210517231806 18 271 0.0 1.6 0.00 0.00 0.00 58 1026.1
20210517231305 18 271 0.0 1.6 0.00 0.00 0.00 59 1026.0
20210517230759 18 271 0.0 1.6 0.00 0.00 0.00 59 1025.9
20210517230259 18 271 0.0 3.2 0.00 0.00 0.00 57 1026.1
20210517225255 18 271 0.0 4.8 0.00 0.00 0.00 59 1026.0
20210517224800 18 271 0.0 4.8 0.00 0.00 0.00 59 1025.9
20210517224257 19 269 0.0 4.8 0.00 0.00 0.00 57 1025.9
20210517223756 19 269 1.6 4.8 0.00 0.00 0.00 56 1026.0
20210517223253 19 259 1.6 4.8 0.00 0.00 0.00 55 1025.9
20210517222757 19 259 1.6 4.8 0.00 0.00 0.00 56 1025.9
20210517222247 19 259 1.6 4.8 0.00 0.00 0.00 57 1026.0
20210517221247 20 258 0.0 1.6 0.00 0.00 0.00 58 1026.0
20210517220746 20 258 0.0 3.2 0.00 0.00 0.00 57 1026.0
20210517220244 19 258 1.6 4.8 0.00 0.00 0.00 54 1026.1
20210517215747 19 254 1.6 4.8 0.00 0.00 0.00 55 1026.1
20210517215241 19 265 1.6 4.8 0.00 0.00 0.00 57 1026.1
20210517214745 19 265 1.6 4.8 0.00 0.00 0.00 63 1026.0
20210517214240 19 265 0.0 4.8 0.00 0.00 0.00 62 1026.0
20210517213742 19 265 0.0 3.2 0.00 0.00 0.00 63 1026.2
20210517213239 19 265 0.0 3.2 0.00 0.00 0.00 61 1026.2
20210517212739 20 265 1.6 4.8 0.00 0.00 0.00 59 1026.3
20210517211232 20 265 0.0 4.8 0.00 0.00 0.00 58 1026.3
20210517210237 20 325 0.0 4.8 0.00 0.00 0.00 56 1026.3
20210517205730 20 281 0.0 3.2 0.00 0.00 0.00 58 1026.3
20210517205234 20 280 1.6 4.8 0.00 0.00 0.00 55 1026.1
20210517204235 20 265 1.6 4.8 0.00 0.00 0.00 55 1026.2
20210517203732 20 317 1.6 4.8 0.00 0.00 0.00 54 1026.1
20210517203236 20 314 1.6 4.8 0.00 0.00 0.00 56 1026.1